Evansville, IN

3:07 PM CDT on June 26, 2017 (GMT -0500)
Evansville Regional

Weather History for KEVV - March, 2014

Change the Weather History Date:

Monday, March 31, 2014

  Actual Average Record
Temperature  
Mean Temperature 54 °F 51 °F  
Max Temperature 71 °F 62 °F 84 °F (1981)
Min Temperature 36 °F 40 °F 19 °F (1923)
Degree Days  
Heating Degree Days 11 14  
Month to date heating degree days 713 590  
Since 1 July heating degree days 4675 4166  
Cooling Degree Days 0 0  
Month to date cooling degree days 0 3  
Year to date cooling degree days 0 3  
Growing Degree Days 4 (Base 50)    
Moisture  
Dew Point 34 °F    
Average Humidity 53    
Maximum Humidity 82    
Minimum Humidity 23    
Precipitation  
Precipitation T in 0.15 in 2.02 in (1979)
Month to date precipitation 2.85 4.24  
Year to date precipitation 6.80 10.51  
Snow  
Snow 0.00 in 0.00 in 0.00 in (2002)
Month to date snowfall 2.6 1.0  
Since 1 July snowfall 12.6 11.7  
Snow Depth 0.00 in    
Sea Level Pressure  
Sea Level Pressure 30.07 in    
Wind  
Wind Speed 8 mph (SSE)    
Max Wind Speed 20 mph    
Max Gust Speed 26 mph    
Visibility 10 miles    
Events Rain    
T = Trace of Precipitation, MM = Missing Value Source: NWS Daily Summary

Daily Weather History Graph

Daily Weather History Graph

Search for Another Location

Airport or City:

Trip Planner

Search our weather history database for the weather conditions in past years. The results will help you decide how hot, cold, wet, or windy it might be!

Date:

Astronomy

Mar. 31, 2014 Rise Set
Actual Time 6:36 AM CDT 7:12 PM CDT
Civil Twilight 6:10 AM CDT 7:38 PM CDT
Nautical Twilight 5:39 AM CDT 8:10 PM CDT
Astronomical Twilight 5:07 AM CDT 8:42 PM CDT
Moon 7:00 AM CDT (3/31) 8:29 PM CDT (3/31)
Length of Visible Light 13h 28m
Length of Day
12h 35m
New Moon, 1% of the Moon is Illuminated
Mar 31
New Moon
Apr 7
First Quarter
Apr 15
Full
Apr 22
Last Quarter
Apr 29
New

Hourly Weather History & Observations

Time (CDT) Temp. Windchill Dew Point Humidity Pressure Visibility Wind Dir Wind Speed Gust Speed Precip Events Conditions
12:54 AM 41.0 °F 39.0 °F 35.1 °F 79% 30.16 in 10.0 mi WSW 3.5 mph - N/A   Clear
1:54 AM 39.9 °F 35.8 °F 34.0 °F 79% 30.17 in 10.0 mi SW 5.8 mph - N/A   Clear
2:54 AM 43.0 °F - 33.1 °F 68% 30.14 in 10.0 mi Calm Calm - N/A   Clear
3:54 AM 42.1 °F 40.2 °F 33.1 °F 70% 30.14 in 10.0 mi East 3.5 mph - N/A   Clear
4:54 AM 42.1 °F - 32.0 °F 67% 30.14 in 10.0 mi Calm Calm - N/A   Clear
5:54 AM 37.9 °F - 32.0 °F 79% 30.14 in 10.0 mi Calm Calm - N/A   Clear
6:54 AM 37.0 °F 33.3 °F 32.0 °F 82% 30.15 in 8.0 mi NNE 4.6 mph - N/A   Clear
7:54 AM 42.1 °F - 34.0 °F 73% 30.16 in 10.0 mi Calm Calm - N/A   Clear
8:54 AM 50.0 °F - 34.0 °F 54% 30.16 in 10.0 mi SSE 6.9 mph - N/A   Clear
9:54 AM 55.0 °F - 36.0 °F 49% 30.14 in 10.0 mi SSE 10.4 mph 19.6 mph N/A   Clear
10:54 AM 59.0 °F - 36.0 °F 42% 30.13 in 10.0 mi SSE 8.1 mph 18.4 mph N/A   Clear
11:54 AM 62.1 °F - 37.0 °F 39% 30.12 in 7.0 mi SSE 13.8 mph - N/A   Clear
12:54 PM 64.0 °F - 37.0 °F 37% 30.10 in 10.0 mi South 11.5 mph - N/A   Clear
1:54 PM 66.9 °F - 35.1 °F 31% 30.06 in 10.0 mi SSE 10.4 mph 20.7 mph N/A   Clear
2:54 PM 69.1 °F - 33.1 °F 26% 30.02 in 10.0 mi SSE 16.1 mph 23.0 mph N/A   Clear
3:54 PM 69.1 °F - 30.0 °F 23% 29.99 in 10.0 mi SSE 13.8 mph - N/A   Clear
4:54 PM 70.0 °F - 30.0 °F 23% 29.97 in 10.0 mi South 13.8 mph 23.0 mph N/A   Clear
5:54 PM 69.1 °F - 30.9 °F 24% 29.95 in 10.0 mi SSE 13.8 mph 21.9 mph N/A   Scattered Clouds
6:54 PM 66.9 °F - 34.0 °F 30% 29.96 in 10.0 mi SE 6.9 mph - N/A   Partly Cloudy
7:54 PM 64.9 °F - 36.0 °F 34% 29.95 in 10.0 mi SSE 4.6 mph - N/A   Mostly Cloudy
8:54 PM 64.0 °F - 36.0 °F 35% 29.92 in 10.0 mi SE 8.1 mph - N/A   Scattered Clouds
9:54 PM 64.9 °F - 33.1 °F 31% 29.91 in 10.0 mi South 8.1 mph - N/A   Mostly Cloudy
10:54 PM 61.0 °F - 37.9 °F 42% 29.94 in 10.0 mi SSW 4.6 mph - 0.00 in   Overcast
11:54 PM 62.1 °F - 37.9 °F 41% 29.94 in 10.0 mi SSE 6.9 mph - 0.00 in Rain Light Rain